Weather reports worldwide

Advertisment
Girona/Costa Brava, Spain (8184): temperature & dewpoint: 30.03.2020 21:00:00 - 05.04.2020 21:00:00 (CEST)Girona/Costa Brava, Spain (8184): wind speed: 30.03.2020 21:00:00 - 05.04.2020 21:00:00 (CEST)Girona/Costa Brava, Spain (8184): wind direction: 30.03.2020 21:00:00 - 05.04.2020 21:00:00 (CEST)Girona/Costa Brava, Spain (8184): reduced air pressure: 30.03.2020 21:00:00 - 05.04.2020 21:00:00 (CEST)Girona/Costa Brava, Spain (8184): visibility: 30.03.2020 21:00:00 - 05.04.2020 21:00:00 (CEST)
Date & Time tt [°C] td [°C] ff [km/h] ff [kn] dd ppp [hPa] vv [km]
05.04.2020 21:00:00 11,1 6,2 13 7 S 1019,4 -
05.04.2020 20:00:00 13,3 6,7 21 11 S 1018,9 -
05.04.2020 19:00:00 15,8 4,9 24 13 S 1018,4 -
05.04.2020 18:00:00 17,1 3,6 29 16 S 1018,5 -
05.04.2020 17:00:00 18,0 1,3 29 16 S 1018,6 -
05.04.2020 16:00:00 18,8 2,4 29 16 S 1018,9 -
05.04.2020 15:00:00 19,2 2,4 24 13 S 1019,3 -
05.04.2020 14:00:00 19,2 2,2 24 13 S 1019,8 -
05.04.2020 13:00:00 18,9 4,1 18 10 S 1020,3 -
05.04.2020 12:00:00 17,6 6,5 13 7 S 1020,9 -
05.04.2020 11:00:00 15,0 6,9 4 2 S 1021,1 -
05.04.2020 10:00:00 11,0 7,1 4 2 S 1021,2 -
05.04.2020 09:00:00 6,6 5,1 4 2 SW 1021,4 -
05.04.2020 08:00:00 3,3 3,2 0 0 N 1020,9 -
05.04.2020 07:00:00 2,9 2,8 0 0 N 1020,4 -
05.04.2020 06:00:00 2,5 2,1 4 2 NE 1020,2 -
05.04.2020 05:00:00 3,4 3,0 0 0 N 1020,2 -
05.04.2020 04:00:00 3,9 3,2 2 1 WSW 1020,4 -
05.04.2020 03:00:00 5,2 4,2 0 0 N 1020,5 -
05.04.2020 02:00:00 6,8 5,5 0 0 N 1020,7 -
05.04.2020 01:00:00 7,7 5,7 5 3 SSE 1020,7 -
05.04.2020 00:00:00 8,6 5,9 0 0 N 1020,3 -
04.04.2020 23:00:00 9,6 6,7 9 5 S 1020,3 -
04.04.2020 22:00:00 9,9 5,9 8 4 S 1019,9 -
04.04.2020 21:00:00 11,6 5,6 13 7 S 1018,9 -
04.04.2020 20:00:00 13,5 6,1 22 12 S 1018,3 -
04.04.2020 19:00:00 15,3 7,6 31 17 S 1017,9 -
04.04.2020 18:00:00 16,8 8,0 28 15 S 1017,6 -
04.04.2020 17:00:00 17,7 7,9 28 15 S 1017,8 -
04.04.2020 16:00:00 18,4 9,9 28 15 S 1018,1 -
04.04.2020 15:00:00 18,8 9,0 28 15 S 1018,4 -
04.04.2020 14:00:00 18,4 6,8 24 13 S 1018,6 -
04.04.2020 13:00:00 18,0 8,4 16 9 S 1019,2 -
04.04.2020 12:00:00 16,3 7,9 8 4 S 1019,7 -
04.04.2020 11:00:00 15,0 7,0 4 2 ESE 1020,1 -
04.04.2020 10:00:00 11,6 8,6 0 0 N 1019,7 -
04.04.2020 09:00:00 6,9 6,8 4 2 SSW 1019,7 -
04.04.2020 08:00:00 4,4 4,4 4 2 NNW 1019,3 -
04.04.2020 07:00:00 2,1 2,0 8 4 NE 1019,0 -
04.04.2020 06:00:00 2,8 2,5 0 0 N 1018,5 -
04.04.2020 05:00:00 3,6 3,3 4 2 W 1018,4 -
04.04.2020 04:00:00 3,9 3,3 0 0 N 1018,3 -
04.04.2020 03:00:00 4,7 4,1 4 2 SSE 1018,5 -
04.04.2020 02:00:00 5,5 5,1 0 0 N 1018,4 -
04.04.2020 01:00:00 6,3 5,6 0 0 N 1018,3 -
04.04.2020 00:00:00 6,5 5,6 5 3 NE 1018,1 -
03.04.2020 23:00:00 8,3 6,6 0 0 N 1017,8 4,0
03.04.2020 22:00:00 10,2 7,8 4 2 S 1017,4 -
03.04.2020 21:00:00 11,4 7,7 9 5 S 1016,6 -
03.04.2020 20:00:00 12,6 7,7 13 7 S 1016,0 -
03.04.2020 19:00:00 13,1 7,8 21 11 S 1015,6 -
03.04.2020 18:00:00 14,2 7,9 22 12 S 1014,9 -
03.04.2020 17:00:00 16,3 8,6 22 12 S 1014,5 -
03.04.2020 16:00:00 16,6 8,6 18 10 S 1014,2 -
03.04.2020 15:00:00 18,1 9,0 18 10 S 1014,0 -
03.04.2020 14:00:00 17,6 6,5 11 6 SSE 1014,3 -
03.04.2020 13:00:00 16,9 6,5 4 2 S 1014,7 -
03.04.2020 12:00:00 15,3 6,4 8 4 NE 1014,9 -
03.04.2020 11:00:00 13,7 7,2 11 6 NNE 1014,8 -
03.04.2020 10:00:00 11,5 8,5 2 1 ENE 1014,8 -
03.04.2020 09:00:00 6,6 6,6 8 4 NW 1014,8 -
03.04.2020 08:00:00 1,7 1,7 8 4 ENE 1014,7 -
03.04.2020 07:00:00 1,6 1,6 4 2 N 1014,0 -
03.04.2020 06:00:00 1,9 1,9 0 0 N 1013,3 -
03.04.2020 05:00:00 2,4 2,4 4 2 WSW 1013,3 -
03.04.2020 04:00:00 3,0 2,9 0 0 N 1013,2 -
03.04.2020 03:00:00 3,8 3,5 2 1 E 1013,5 -
03.04.2020 02:00:00 4,5 4,1 0 0 N 1013,7 8
03.04.2020 01:00:00 5,4 4,5 4 2 NW 1013,7 -
03.04.2020 00:00:00 6,8 5,3 8 4 NW 1013,9 -
02.04.2020 23:00:00 7,6 5,6 9 5 NNW 1013,8 20
02.04.2020 22:00:00 7,8 5,9 9 5 N 1013,6 -
02.04.2020 21:00:00 9,1 6,5 8 4 N 1013,1 -
02.04.2020 20:00:00 9,9 6,4 13 7 NNE 1012,4 15
02.04.2020 19:00:00 11,2 7,0 18 10 NNE 1012,4 -
02.04.2020 18:00:00 11,9 7,6 18 10 NE 1012,2 -
02.04.2020 17:00:00 12,3 8,1 21 11 NNE 1012,2 15
02.04.2020 16:00:00 11,1 6,8 18 10 N 1012,7 -
02.04.2020 15:00:00 11,0 7,4 21 11 NNE 1012,9 -
02.04.2020 14:00:00 10,7 7,1 26 14 NNE 1013,2 17
02.04.2020 13:00:00 11,5 7,2 26 14 NNE 1013,5 -
02.04.2020 12:00:00 11,0 6,5 24 13 NNE 1013,4 -
02.04.2020 11:00:00 10,2 6,9 24 13 NNE 1013,1 -
02.04.2020 10:00:00 9,6 7,3 16 9 N 1012,8 -
02.04.2020 09:00:00 8,5 7,3 15 8 N 1012,5 -
02.04.2020 08:00:00 7,8 7,4 11 6 N 1012,3 -
02.04.2020 07:00:00 7,4 7,3 16 9 N 1012,5 -
02.04.2020 06:00:00 7,4 7,1 13 7 N 1012,5 -
02.04.2020 05:00:00 7,6 7,2 16 9 N 1012,4 -
02.04.2020 04:00:00 7,8 6,7 15 8 N 1013,1 -
02.04.2020 03:00:00 7,8 7,0 11 6 NNE 1013,4 -
02.04.2020 02:00:00 7,9 6,5 9 5 N 1013,8 -
02.04.2020 01:00:00 8,1 7,2 8 4 N 1014,4 -
02.04.2020 00:00:00 8,4 8,1 15 8 N 1014,6 -
01.04.2020 23:00:00 8,4 8,3 16 9 N 1014,6 -
01.04.2020 22:00:00 8,6 8,6 13 7 N 1014,9 -
01.04.2020 21:00:00 8,5 8,5 16 9 N 1014,6 -
01.04.2020 20:00:00 8,6 8,5 15 8 N 1014,4 -
01.04.2020 19:00:00 8,7 8,4 15 8 NNE 1014,6 -
01.04.2020 18:00:00 8,8 8,7 18 10 N 1014,6 -
01.04.2020 17:00:00 8,8 8,5 18 10 NNE 1014,8 -
01.04.2020 16:00:00 9,1 9,0 18 10 NNE 1015,1 -
01.04.2020 15:00:00 8,9 8,9 18 10 N 1015,8 -
01.04.2020 14:00:00 9,0 9,0 18 10 NNE 1016,3 5
01.04.2020 13:00:00 8,9 8,9 18 10 N 1016,8 -
01.04.2020 12:00:00 9,0 8,9 16 9 NNE 1017,4 -
01.04.2020 11:00:00 9,0 8,9 18 10 N 1017,0 -
01.04.2020 10:00:00 9,1 8,6 15 8 N 1016,9 -
01.04.2020 09:00:00 9,2 8,6 15 8 N 1016,7 -
01.04.2020 08:00:00 9,3 8,8 13 7 NNE 1016,4 -
01.04.2020 07:00:00 9,8 9,0 11 6 NE 1016,2 -
01.04.2020 06:00:00 10,0 9,5 11 6 NNE 1016,0 -
01.04.2020 05:00:00 9,8 9,7 11 6 NNE 1015,9 -
01.04.2020 04:00:00 9,6 9,6 13 7 N 1016,2 -
01.04.2020 03:00:00 9,0 9,0 13 7 NNE 1016,3 -
01.04.2020 02:00:00 8,8 8,7 13 7 NNE 1016,6 -
01.04.2020 01:00:00 8,8 8,7 9 5 NNE 1016,4 -
01.04.2020 00:00:00 9,0 8,4 9 5 N 1016,3 -
31.03.2020 23:00:00 9,0 8,4 5 3 NW 1016,4 -
31.03.2020 22:00:00 8,8 7,7 5 3 NNW 1016,4 -
31.03.2020 21:00:00 9,1 7,2 11 6 N 1015,9 -
31.03.2020 20:00:00 10,0 6,9 8 4 NNE 1015,6 -
31.03.2020 19:00:00 10,2 7,4 15 8 N 1014,8 -
31.03.2020 18:00:00 10,7 7,4 18 10 NNE 1014,6 -
31.03.2020 17:00:00 10,9 7,2 13 7 ENE 1014,8 -
31.03.2020 16:00:00 11,1 7,2 13 7 NE 1014,7 -
31.03.2020 15:00:00 11,1 6,5 16 9 NNE 1014,7 -
31.03.2020 14:00:00 10,7 6,0 16 9 NNE 1014,7 -
31.03.2020 13:00:00 10,6 5,8 16 9 NE 1014,9 -
31.03.2020 12:00:00 9,8 5,3 15 8 NNE 1015,1 -
31.03.2020 11:00:00 10,5 5,2 15 8 NNE 1015,2 -
31.03.2020 10:00:00 9,4 4,8 16 9 NNE 1015,1 -
31.03.2020 09:00:00 8,2 5,3 11 6 NNE 1015,2 -
31.03.2020 08:00:00 7,3 5,3 8 4 N 1014,9 -
31.03.2020 07:00:00 7,2 5,4 5 3 N 1014,7 -
31.03.2020 06:00:00 7,2 5,3 9 5 NNE 1014,5 -
31.03.2020 05:00:00 7,0 6,3 9 5 NNE 1014,5 -
31.03.2020 04:00:00 6,8 6,2 8 4 N 1014,5 -
31.03.2020 03:00:00 7,0 6,4 8 4 N 1014,9 -
31.03.2020 02:00:00 6,7 6,1 5 3 ENE 1015,2 -
31.03.2020 01:00:00 6,5 5,6 4 2 NNW 1015,1 -
31.03.2020 00:00:00 6,8 5,9 8 4 NNE 1015,4 -
30.03.2020 23:00:00 7,2 6,5 8 4 N 1015,4 -
30.03.2020 22:00:00 7,4 6,7 5 3 N 1015,1 -
30.03.2020 21:00:00 7,6 6,5 0 0 N 1015,0 -

tt = temperature
td = dewpoint
ff = wind speed
dd = wind direction
ppp = reduced air pressure
vv = visibility

Next stations